Regional Weather Roundup
Issued by NWS Charleston, SC

Current Version | Previous Version | Graphics & Text | Print | Product List | Glossary On
Versions: 1 2 3 4 5 6 7 8 9 10 11 12 13 14 15 16 17 18 19 20 21 22 23 24 25 26 27 28 29 30 31 32 33 34 35 36 37 38 39 40 41 42 43 44 45 46 47 48 49 50
000
ASUS42 KCHS 171527
RWRCHS

Regional Weather Roundup
National Weather Service Charleston SC
1000 AM EST WED JAN 17 2018

NOTE: "fair" indicates few or no clouds below 12,000 feet with no
significant weather and/or obstructions to visibility.

Not all stations are quality controlled. Use data with caution,
especially dewpoint observations.

SCZ027-030-031-034>040-042>050-171600-
...Southeast South Carolina...

CITY           SKY/WX    TMP DP  RH WIND       PRES   REMARKS
N Charleston   FAIR      49  39  68 W7        30.25R
Waterfront Prk NOT AVBL
Mount Pleasant FAIR      52  39  62 NW6       30.24R
Johns Island   FAIR      52  39  62 W10       30.25R
Pinopolis        N/A     41  39  93 VRB2      30.16S
Moncks Corner  FAIR      46  34  61 CALM      30.25R
Summerville    CLOUDY    46  36  66 NW7       30.26R
Beaufort MCAS  PTSUNNY   47  38  71 NW13      30.27R
Beaufort Arpt  PTSUNNY   46  36  66 NW14      30.26R HAZE
Hilton Head Is MOSUNNY   48  37  66 NW6       30.26R
Walterboro     CLOUDY    45  36  70 NW7       30.28R
Allendale      MIX PCPN  41  34  75 VRB6      30.29R

...Southern Midlands and Pee Dee...

CITY           SKY/WX    TMP DP  RH WIND       PRES   REMARKS
Georgetown     FAIR      52  45  76 SE5       30.23S
Kingstree      PTSUNNY   45  34  65 NW7       30.24R
Orangeburg     CLOUDY    42  33  70 NW7       30.26R
Barnwell       DRIZZLE   39  37  93 W8        30.29R WCI  34
Aiken          LGT SNOW  34  34 100 W5        30.29S WCI  30
Manning        CLOUDY    45  21  39 MISG      30.26R
Columbia       LGT RAIN  40  39  97 W6        30.26R FOG     WCI  36
Sumter         LGT RAIN  42  36  81 NW7       30.23R
Florence       CLOUDY    44  34  67 NW5       30.24S
Myrtle Beach   FAIR      51  44  77 E12       30.23F
N Myrtle Beach FAIR      50  38  63 SE6       30.22S

$$

GAZ063-065-086>088-099>101-113>116-118-119-134>141-150-171600-
...Southeast Georgia...

CITY           SKY/WX    TMP DP  RH WIND       PRES   REMARKS
Savannah Arpt  CLOUDY    46  37  71 NW12      30.29R
Hunter AAF     PTSUNNY   46  40  81 NW13      30.25R
Fort Stewart   CLOUDY    45  35  68 NW12      30.27R
Statesboro     LGT RAIN  40  32  74 NW6       30.31R WCI  35
Sylvania       RAIN      39  35  86 NW6       30.31R WCI  35
Claxton        CLOUDY    41  33  73 W8        30.33R

...CSRA, Central and far Southeast Georgia...

CITY           SKY/WX    TMP DP  RH WIND       PRES   REMARKS
Thomson        LGT SNOW  30  28  90 N10       30.36R FOG     WCI  21
Augusta-Bush   LGT SNOW  35  33  92 W9        30.30R FOG     WCI  28
Augusta-Daniel LGT SNOW  34  31  88 SW6       30.29R FOG     WCI  29
Swainsboro     FLURRIES  34  32  93 NW8       30.34R WCI  27
Vidalia        DRIZZLE   36  32  87 NW8       30.34R WCI  29
Eastman        LGT SNOW  32  24  73 NW8       30.40R WCI  25
Hazlehurst     DRIZZLE   37  29  73 NW6       30.35R WCI  32
Alma           CLOUDY    40  31  70 NW12      30.34R WCI  33
Waycross       CLOUDY    42  30  64 N15       30.35R
Jesup          CLOUDY    46  36  66 NW15      30.32R
Baxley         CLOUDY    36  30  80 NW9       30.34R WCI  29
Brunswick      FAIR      48  39  71 NW10      30.29R
Saint Simons   FAIR      47  41  80 NW9       30.27R

$$

SCZ027-028-034-036>038-045-046-048>050-GAZ119-141-171600-
...Lake and Supplemental Coastal Observations...

STATION/POSITION TIME  TEMP    WIND        PRES    WAVE   SWELL
                       AIR SEA DIR/SP/G            HT/PER HT/PER/DIR
                 (UTC) (F)     (DEG/KT/KT) (MB)    (FT/S) (FT/S/D)
Winyah Bay       1430   45      80/  2     1023.0S
Lake Murray      1420   38     310/  2/  8 1023.7S
ACE Basin NERRS  1445   47     320/  4     1024.0S
Fort Pulaski     1500   46 46  340/ 11/ 13 1024.7
Sapelo Island    1500   47     340/ 10     1025.0

$$

ANZ835-935-AMZ111-154-330-350-352-354-370-450-454-472-171600-
...C-MAN and Buoy Observations...

STATION/POSITION TIME  TEMP    WIND        PRES    WAVE   SWELL
                       AIR SEA DIR/SP/G            HT/PER HT/PER/DIR
                 (UTC) (F)     (DEG/KT/KT) (MB)    (FT/S) (FT/S/D)
Buoy 41004       1510   60 70  140/  4/  8 1023.4
Buoy 41008       1450   46 52  310/ 14/ 16 1024.4R   3/11   3/ 80/11
Folly Beach CMAN 1500   49     290/  7/ 10 1024.4R
Capers Nearshore 1508   49 47   10/  2/  4 1023.4R
Fripp Nearshore  1508   46 47  340/ 10/ 16 1023.6R


STATION/POSITION TIME  TEMP    WIND        PRES    WAVE   SWELL
                       AIR SEA DIR/SP/G            HT/PER HT/PER/DIR
                 (UTC) (F)     (DEG/KT/KT) (MB)    (FT/S) (FT/S/D)
5E St. Marys GA  1430      50                N/A     3/10   2/110/11
Frying Pan Buoy  1510   58 65   70/  6/ 10 1023.4
Buoy 41025       1510   51 71   30/ 14/ 17 1024.2
Cape Lookout NC  1500           20/  7/  9 1024.5F
Buoy 41002       1450   69 70  140/ 14/ 16 1021.5F   7/11   7/ 60/11
Buoy 41010       NOT AVBL
St Augustine FL  1500   53 51  330/  6/  7 1025.1R


$$




USA.gov is the U.S. government's official web portal to all federal, state and local government web resources and services.